Wind_Speed
14 14 14 15 15 15 15 16 17 18 19 20 20 18 17 17 17 16 14 12 10 9 9 8 8 10 10 4 5 7 6 5 5 4 2 4 4 4 4 5 11 12 17 25 26 27 31
12 13 13 13 14 15 16 16 16 16 16 18 18 18 18 19 20 18 15 12 11 10 10 9 9 10 8 5 5 6 7 6 5 4 0 3 0 3 9 7 8 10 22 29 27 31 36
12 13 14 15 16 17 16 17 17 17 17 17 19 21 23 23 22 19 15 12 10 11 11 11 9 10 10 14 6 7 5 6 4 3 4 3 7 7 4 5 16 17 18 20 21 22 19
13 14 14 16 17 16 17 18 17 17 17 20 21 25 23 21 17 16 14 12 11 10 11 11 9 8 9 7 8 14 11 8 4 4 7 9 9 11 11 12 10 10 9 8 3 13 15
13 13 14 15 14 15 16 18 19 17 19 21 23 22 21 21 17 15 13 13 11 10 10 9 6 5 9 7 11 13 12 7 2 6 7 7 8 7 3 3 7 5 8 13 19 17 13
14 16 16 15 17 17 17 16 17 19 20 21 22 19 19 20 18 16 13 12 10 8 4 4 5 4 8 7 5 7 10 9 8 5 5 8 6 2 3 5 7 6 8 13 15 4 7
15 16 18 17 16 16 15 17 18 20 21 21 19 19 19 18 18 16 13 7 6 3 8 10 5 4 2 6 5 6 10 6 6 5 5 10 4 13 16 18 18 19 22 25 31 27 20
17 18 19 20 20 17 15 17 18 19 19 21 21 21 20 19 18 13 6 2 7 10 11 19 26 17 10 5 3 7 11 9 9 7 9 5 15 21 16 17 18 20 23 30 33 25 16
17 18 18 18 19 19 19 18 18 19 19 20 21 21 20 18 14 6 10 5 9 8 5 8 6 13 17 14 8 11 19 8 7 10 11 12 10 4 7 13 14 19 22 27 28 33 24
17 19 20 19 19 18 17 17 16 17 18 20 21 22 22 19 6 9 4 6 9 2 3 3 1 1 7 6 5 12 21 7 4 5 9 10 15 13 12 15 11 17 19 21 22 17 12
19 18 20 21 19 20 18 17 17 18 18 19 21 23 23 18 10 6 7 9 2 2 4 2 4 5 4 6 1 6 15 6 8 8 2 8 7 6 9 13 6 14 14 16 23 21 17
21 21 21 20 19 20 17 18 17 16 18 19 20 23 23 15 10 7 7 2 1 4 5 2 4 3 2 6 3 9 6 10 7 7 11 20 12 8 9 12 10 12 11 20 18 6 5
20 19 21 20 20 20 18 18 19 17 16 17 20 24 21 14 6 7 4 0 3 3 2 2 3 5 5 4 5 7 6 6 4 4 4 5 10 6 10 7 1 1 8 7 4 2 6
21 21 18 19 19 18 19 18 20 13 16 17 19 22 18 11 7 1 4 3 2 3 2 3 1 6 6 4 5 6 4 4 11 8 3 3 7 2 2 4 10 11 5 5 8 6 15
21 19 18 19 17 18 17 17 15 15 16 17 19 21 14 12 5 4 1 2 6 2 2 6 9 3 1 2 2 4 7 5 4 13 6 4 5 10 17 7 3 6 4 5 5 7 5
20 20 18 18 18 17 17 17 14 16 16 17 16 18 8 8 1 2 3 5 3 1 2 2 2 2 2 3 1 2 3 2 2 5 2 3 8 9 10 9 10 9 5 4 3 5 6
20 18 18 16 15 14 13 16 17 16 18 12 12 9 3 4 1 0 2 5 5 2 2 2 3 4 4 3 2 2 5 3 2 1 1 3 6 4 7 4 10 3 5 4 4 3 4
18 17 17 16 15 14 11 11 14 16 10 11 4 2 5 6 1 1 2 4 5 5 4 3 2 3 4 4 4 4 5 3 6 1 2 1 4 5 8 19 9 7 5 5 4 7 5
17 16 16 15 15 14 13 11 13 11 10 14 3 6 6 5 2 3 5 5 6 3 4 4 4 6 3 3 3 4 4 4 5 1 2 2 1 6 8 5 5 3 10 11 10 7 4
15 15 16 17 17 16 14 13 12 10 10 11 4 1 4 7 2 2 3 5 4 4 5 5 4 2 2 3 5 5 3 2 2 4 7 2 3 5 7 11 10 16 22 17 10 7 10
16 17 17 16 16 15 14 11 10 10 9 3 1 2 3 3 3 3 1 3 2 4 5 3 4 5 1 3 3 6 6 4 7 13 5 3 5 8 12 12 14 18 20 24 17 16 11
15 15 15 16 17 16 14 11 10 6 3 3 2 4 3 4 4 2 3 4 5 4 3 5 5 7 5 6 8 12 10 4 4 5 4 4 5 2 10 13 15 19 21 18 19 20 18
15 16 17 18 18 17 16 15 10 9 4 2 5 6 5 5 3 3 5 6 4 2 9 15 8 6 8 13 15 19 19 15 13 6 5 3 2 2 10 4 8 10 10 7 3 8 6
15 16 16 14 15 15 16 19 15 13 6 5 7 10 4 5 3 4 4 8 14 11 14 23 15 8 5 12 19 19 24 24 21 17 14 8 3 2 6 3 2 6 4 4 6 5 10
14 15 15 14 14 13 12 11 13 14 14 13 8 7 6 6 6 8 6 6 15 14 11 18 21 17 14 5 3 5 4 5 4 2 8 13 6 3 3 3 7 8 4 4 5 3 7
14 15 15 16 16 15 15 14 12 10 12 12 9 5 6 6 4 7 4 11 3 7 8 2 12 10 4 1 0 3 3 4 4 2 5 3 3 3 1 3 5 0 6 13 5 1 9
14 14 15 15 15 13 12 12 12 12 11 15 15 12 9 9 17 10 5 5 5 4 4 6 6 5 2 1 2 3 4 3 2 1 3 1 1 3 4 3 7 4 10 12 1 4 14
15 16 17 18 18 18 17 16 16 15 13 14 20 16 17 15 25 25 21 15 11 6 3 5 7 2 1 1 2 3 2 3 2 3 3 3 4 3 1 1 5 9 5 4 6 10 16
16 17 18 19 20 21 21 19 17 17 16 16 21 18 18 27 25 30 31 31 34 29 22 6 4 1 4 2 2 3 3 2 2 2 3 2 4 2 4 2 8 18 16 12 14 10 16
Wind_Direction
13 10 8 4 6 5 1 357 359 359 359 358 357 354 355 349 345 338 325 310 296 286 287 294 310 326 337 313 258 268 278 302 305 297 354 73 28 341 281 299 320 280 279 274 272 270 266
358 356 352 350 348 347 351 346 351 352 346 355 350 357 358 351 346 337 326 314 299 283 280 283 295 319 322 286 255 262 260 285 294 285 310 113 214 309 303 257 240 270 288 284 284 275 270
347 344 342 342 341 344 346 340 344 345 342 343 337 340 336 331 329 330 327 314 298 283 273 274 290 309 290 274 255 264 274 273 278 224 250 273 281 266 308 293 276 286 290 281 259 255 254
346 342 342 343 345 347 345 340 342 339 338 336 338 337 337 336 333 332 329 323 311 295 280 279 286 296 267 276 248 254 272 261 275 253 257 267 263 276 265 272 282 277 268 285 173 227 247
346 347 350 347 347 343 339 335 332 334 336 336 337 341 350 344 339 339 337 331 316 297 282 279 283 283 270 271 239 241 256 265 263 263 261 260 252 241 247 269 291 236 264 254 296 227 244
359 354 348 345 340 341 339 340 339 336 334 334 339 343 348 349 345 339 335 330 317 299 282 257 223 289 249 250 243 211 221 227 226 245 247 214 213 235 202 189 244 233 257 264 273 266 271
356 352 351 347 346 347 345 344 340 335 334 336 340 339 338 339 342 341 335 339 337 315 220 217 238 226 285 185 205 233 220 196 196 217 221 191 209 229 228 215 240 269 272 274 271 274 279
358 355 355 353 348 347 342 339 340 342 346 345 337 336 337 337 338 343 18 30 316 300 298 273 255 241 213 252 255 228 185 182 195 214 213 242 245 248 241 236 241 248 266 271 279 278 262
353 350 349 349 348 344 343 342 348 346 342 345 343 347 347 343 335 354 349 332 325 299 277 307 267 233 238 244 247 229 191 197 230 241 227 233 230 247 232 246 253 254 255 269 272 292 271
345 349 344 342 342 340 340 343 344 349 344 344 346 348 345 343 348 330 313 321 319 289 28 258 195 187 183 185 254 239 203 189 203 252 232 248 256 253 252 256 235 264 260 260 277 293 280
342 339 339 335 337 338 337 341 343 346 342 352 350 348 346 338 333 316 317 316 340 1 353 199 148 175 191 192 339 178 190 186 242 244 238 255 285 281 257 244 163 250 288 277 275 273 284
336 328 328 327 330 329 332 336 333 335 346 341 339 338 341 333 316 307 323 291 264 46 267 140 137 180 194 213 236 150 182 217 244 250 241 252 260 264 235 268 215 264 304 291 274 271 252
321 320 321 320 322 317 323 328 329 330 337 336 339 338 338 338 314 288 290 235 46 163 355 291 207 173 196 222 210 186 186 202 219 255 231 257 256 239 214 270 136 314 307 310 326 253 250
313 311 309 312 316 312 312 312 322 319 329 334 332 335 339 356 343 219 155 73 126 239 340 5 246 249 208 149 237 202 239 256 219 208 284 256 321 25 132 245 278 266 236 279 316 309 297
317 316 308 303 304 304 314 317 311 300 322 329 325 336 339 356 356 152 137 80 211 241 307 328 305 244 161 112 185 230 225 234 222 177 204 292 248 332 303 302 324 309 277 226 269 255 272
325 318 314 308 305 306 310 306 325 312 316 318 327 330 319 352 47 161 49 267 272 80 328 350 259 70 322 264 292 35 269 214 231 186 124 286 290 244 296 306 279 210 315 315 318 309 299
327 328 325 325 314 301 304 314 315 311 301 311 322 321 302 338 214 252 168 257 307 284 323 247 283 305 276 269 214 259 267 293 81 189 179 301 226 307 340 290 308 335 316 315 269 241 297
335 333 327 326 325 320 310 313 305 319 299 311 296 289 304 314 353 104 223 213 296 269 238 272 228 241 228 281 257 250 245 357 74 104 285 333 311 287 264 286 306 259 44 0 309 332 285
350 351 346 341 331 327 317 304 303 310 325 323 250 242 264 218 191 229 267 262 230 231 228 210 248 212 194 258 297 245 275 204 149 122 159 315 302 311 333 341 16 350 313 329 315 277 257
355 356 352 351 350 343 334 316 301 293 286 298 241 277 247 221 269 228 287 267 263 279 274 248 261 298 232 262 234 276 265 314 172 209 282 185 229 221 265 280 297 301 304 308 301 287 304
0 359 357 357 352 351 348 337 312 310 297 322 219 250 230 286 281 237 334 312 278 291 254 273 322 234 188 262 273 249 236 311 295 277 170 221 252 234 254 270 284 282 282 294 288 272 260
10 11 11 11 10 6 3 352 337 337 339 291 273 237 241 269 260 280 213 230 218 264 231 252 214 251 193 210 211 270 287 266 220 308 146 189 260 264 273 267 267 277 273 270 276 275 267
12 11 8 3 3 4 1 359 354 333 339 284 265 280 294 245 194 221 231 235 258 278 252 249 256 258 242 248 271 257 258 258 254 218 220 233 231 212 276 317 321 287 266 256 300 38 330
2 1 357 351 355 356 1 6 8 20 351 295 284 281 248 274 219 211 258 261 298 281 282 287 276 290 278 289 288 285 268 258 254 246 235 241 211 228 279 32 262 233 25 50 134 52 17
354 355 355 354 353 348 345 347 354 355 358 359 279 286 282 279 301 290 275 273 294 300 293 283 283 279 289 309 322 327 306 342 319 62 226 223 217 238 233 187 299 313 25 13 358 28 0
359 2 357 352 354 349 349 350 331 324 328 325 331 307 273 292 251 298 300 285 261 311 302 275 328 295 295 266 235 248 253 239 297 291 3 63 206 213 126 229 233 291 307 297 214 245 356
355 350 345 341 337 328 326 328 326 331 323 304 306 294 265 259 277 279 262 281 285 282 284 303 347 321 228 212 220 224 232 217 279 234 211 313 161 201 243 252 285 291 300 308 153 10 347
354 344 342 340 334 326 316 309 307 301 292 298 292 285 269 261 280 277 274 261 265 260 281 313 328 306 264 246 232 254 190 247 62 221 197 213 173 216 122 204 293 348 358 52 333 358 8
347 344 340 338 337 339 336 332 320 313 305 283 290 294 289 261 268 281 283 274 277 273 271 245 247 245 272 256 326 324 298 1 179 264 312 252 209 185 211 224 46 57 69 36 21 11 2
Height
1546 1544 1542 1540 1537 1536 1534 1531 1529 1526 1524 1522 1519 1516 1513 1511 1508 1506 1504 1503 1502 1501 1500 1500 1499 1499 1498 1498 1496 1496 1497 1496 1497 1497 1496 1498 1499 1501 1502 1500 1499 1496 1489 1488 1487 1487 1484
1545 1544 1542 1540 1538 1536 1534 1532 1529 1526 1524 1522 1519 1516 1513 1510 1507 1505 1502 1500 1500 1500 1499 1499 1498 1498 1497 1498 1493 1494 1496 1496 1496 1496 1497 1498 1500 1502 1502 1501 1500 1491 1489 1483 1485 1480 1473
1546 1544 1542 1540 1538 1536 1534 1532 1529 1526 1524 1521 1518 1515 1512 1509 1506 1503 1501 1499 1498 1498 1497 1497 1497 1496 1495 1494 1491 1492 1494 1494 1495 1496 1497 1498 1500 1502 1502 1499 1495 1492 1487 1477 1474 1468 1463
1545 1542 1541 1539 1537 1535 1533 1531 1529 1526 1523 1520 1517 1514 1510 1507 1504 1501 1499 1497 1496 1495 1495 1495 1495 1494 1490 1489 1489 1491 1492 1492 1493 1495 1497 1499 1500 1501 1502 1499 1495 1491 1487 1471 1453 1457 1458
1544 1542 1540 1538 1536 1533 1531 1529 1527 1524 1522 1519 1516 1512 1509 1506 1503 1500 1498 1495 1493 1492 1493 1493 1494 1494 1488 1486 1487 1489 1490 1492 1493 1495 1496 1498 1499 1500 1500 1500 1497 1488 1484 1467 1452 1447 1451
1544 1542 1540 1537 1535 1533 1530 1528 1526 1524 1520 1517 1513 1511 1508 1505 1502 1500 1497 1495 1492 1490 1491 1491 1492 1495 1487 1485 1485 1486 1489 1491 1493 1495 1496 1497 1498 1498 1497 1499 1495 1494 1479 1459 1455 1440 1444
1543 1540 1538 1536 1533 1531 1529 1526 1524 1521 1518 1515 1512 1509 1506 1503 1500 1498 1496 1495 1496 1493 1490 1485 1483 1482 1483 1484 1486 1487 1487 1490 1493 1494 1493 1492 1495 1486 1481 1481 1474 1474 1471 1461 1437 1434 1442
1543 1541 1538 1536 1533 1530 1527 1525 1521 1519 1516 1514 1510 1507 1504 1501 1498 1496 1495 1495 1495 1496 1488 1480 1479 1481 1482 1483 1484 1484 1487 1490 1490 1491 1490 1491 1481 1466 1470 1472 1472 1468 1463 1443 1423 1426 1430
1543 1540 1537 1534 1531 1529 1526 1524 1521 1518 1516 1512 1509 1505 1502 1499 1496 1495 1494 1494 1493 1491 1489 1478 1476 1477 1480 1482 1482 1479 1483 1484 1485 1485 1485 1484 1462 1461 1464 1463 1464 1456 1451 1435 1433 1410 1413
1541 1539 1537 1534 1530 1528 1524 1522 1519 1517 1514 1511 1508 1504 1500 1497 1497 1494 1493 1493 1492 1490 1494 1478 1477 1477 1478 1479 1479 1475 1478 1482 1482 1482 1481 1477 1460 1457 1457 1455 1455 1452 1427 1429 1422 1421 1404
1539 1537 1535 1532 1529 1527 1524 1521 1519 1517 1513 1509 1507 1504 1500 1496 1495 1493 1493 1491 1490 1491 1499 1476 1476 1476 1476 1479 1477 1476 1477 1478 1477 1476 1477 1462 1455 1454 1456 1445 1443 1433 1423 1423 1417 1409 1401
1538 1536 1533 1530 1527 1525 1523 1520 1517 1515 1512 1510 1505 1500 1496 1493 1492 1492 1491 1490 1491 1497 1500 1477 1474 1475 1477 1475 1474 1474 1475 1476 1474 1472 1468 1461 1453 1451 1439 1432 1434 1425 1425 1415 1404 1403 1398
1534 1532 1529 1527 1524 1522 1520 1518 1516 1513 1510 1507 1505 1501 1495 1490 1489 1488 1489 1490 1496 1501 1467 1475 1471 1471 1471 1471 1469 1470 1472 1471 1469 1465 1458 1451 1439 1434 1434 1433 1428 1431 1426 1404 1405 1396 1387
1529 1526 1525 1523 1520 1518 1515 1513 1512 1510 1508 1505 1501 1496 1494 1492 1488 1487 1487 1491 1504 1476 1473 1469 1465 1464 1466 1463 1464 1464 1464 1465 1459 1461 1458 1451 1452 1425 1427 1427 1423 1417 1417 1414 1401 1390 1369
1525 1521 1519 1517 1516 1514 1512 1510 1508 1506 1504 1501 1499 1496 1493 1491 1491 1490 1490 1502 1489 1477 1474 1473 1467 1465 1459 1460 1463 1461 1460 1458 1452 1454 1458 1452 1441 1426 1422 1421 1419 1413 1414 1402 1401 1391 1376
1521 1517 1515 1513 1512 1511 1510 1507 1504 1504 1502 1500 1498 1496 1494 1493 1491 1492 1494 1490 1479 1474 1474 1473 1473 1465 1470 1466 1463 1464 1457 1447 1450 1450 1451 1451 1443 1431 1423 1417 1408 1409 1406 1404 1404 1391 1376
1517 1514 1512 1509 1508 1506 1505 1505 1504 1502 1500 1499 1497 1495 1492 1492 1493 1493 1503 1492 1480 1476 1475 1475 1472 1472 1469 1469 1465 1463 1456 1448 1448 1450 1451 1451 1447 1434 1429 1420 1415 1411 1412 1412 1400 1399 1380
1513 1511 1509 1505 1504 1502 1502 1502 1500 1499 1497 1496 1496 1495 1493 1492 1494 1493 1496 1483 1479 1474 1474 1473 1472 1471 1470 1465 1465 1463 1455 1450 1451 1455 1453 1451 1446 1442 1434 1414 1410 1410 1418 1417 1406 1401 1396
1513 1509 1507 1503 1501 1501 1500 1498 1497 1496 1496 1495 1492 1491 1489 1489 1494 1488 1482 1478 1474 1471 1471 1470 1468 1466 1463 1465 1466 1456 1451 1447 1449 1450 1453 1451 1450 1446 1438 1422 1412 1414 1412 1414 1417 1408 1394
1512 1508 1505 1503 1501 1499 1496 1495 1495 1494 1493 1492 1490 1490 1487 1486 1486 1485 1484 1479 1474 1470 1470 1467 1465 1463 1463 1464 1461 1459 1451 1447 1447 1447 1449 1450 1449 1448 1445 1436 1432 1429 1414 1413 1415 1413 1396
1510 1508 1506 1503 1499 1496 1494 1493 1490 1491 1491 1492 1492 1490 1488 1491 1484 1486 1486 1484 1479 1476 1471 1467 1467 1463 1467 1467 1460 1454 1449 1448 1446 1445 1445 1450 1445 1443 1438 1436 1433 1428 1422 1409 1409 1403 1403
1511 1508 1505 1502 1499 1497 1493 1491 1490 1489 1489 1490 1492 1490 1488 1485 1483 1485 1484 1481 1477 1472 1468 1467 1466 1462 1461 1464 1459 1455 1455 1453 1450 1444 1443 1445 1442 1438 1435 1431 1429 1424 1413 1407 1400 1392 1386
1511 1509 1506 1503 1499 1496 1493 1491 1490 1489 1489 1490 1490 1490 1487 1480 1479 1481 1477 1475 1472 1470 1461 1460 1460 1460 1458 1452 1451 1449 1448 1446 1443 1444 1442 1442 1441 1440 1429 1427 1427 1423 1404 1398 1396 1400 1394
1509 1507 1505 1502 1500 1498 1495 1493 1490 1490 1490 1489 1490 1488 1486 1479 1477 1475 1470 1472 1470 1469 1463 1458 1456 1454 1453 1449 1446 1443 1439 1435 1433 1432 1436 1436 1436 1436 1432 1442 1453 1404 1400 1399 1401 1405 1403
1509 1506 1504 1502 1499 1497 1496 1493 1493 1491 1490 1490 1489 1489 1486 1477 1474 1471 1469 1467 1464 1464 1461 1456 1452 1452 1449 1446 1448 1445 1440 1436 1429 1428 1429 1430 1433 1431 1431 1446 1423 1403 1405 1407 1404 1405 1404
1507 1504 1502 1501 1499 1497 1495 1494 1491 1490 1488 1486 1486 1485 1485 1482 1473 1469 1468 1466 1465 1461 1457 1451 1450 1447 1448 1446 1448 1452 1444 1439 1435 1433 1429 1427 1428 1428 1435 1425 1446 1413 1408 1403 1403 1400 1406
1505 1503 1500 1498 1497 1494 1493 1491 1489 1488 1488 1486 1485 1484 1481 1476 1469 1469 1467 1465 1463 1462 1459 1453 1451 1448 1447 1449 1451 1451 1442 1435 1433 1438 1441 1440 1430 1431 1429 1424 1430 1414 1407 1401 1407 1412 1409
1504 1501 1498 1495 1493 1491 1488 1486 1485 1484 1483 1481 1478 1478 1477 1472 1463 1461 1463 1462 1459 1459 1458 1455 1453 1449 1447 1450 1443 1441 1441 1435 1435 1433 1425 1425 1429 1437 1436 1430 1431 1413 1407 1411 1423 1416 1413
1502 1499 1496 1493 1490 1487 1484 1481 1479 1478 1476 1476 1473 1472 1472 1466 1461 1457 1454 1454 1453 1453 1454 1453 1451 1449 1446 1443 1444 1438 1435 1433 1438 1435 1426 1425 1421 1420 1421 1420 1418 1421 1424 1425 1422 1419 1416